This is the latest recevied weather packets stored in our database for station/object KI5RKU-09. If no packets are shown the sender has not sent any weather packets the latest 10 day(s).
| Time | Temp. | Humidity | Pressure | Rain* | Wind** | Luminosity | Snow |
|---|---|---|---|---|---|---|---|
| 1777639543 | 13.33° C | 83% | 1017.9 hPa | 0 mm | - | 0 W/m² | - |
| 1777638327 | 13.33° C | 84% | 1017.1 hPa | 0 mm | - | 0 W/m² | - |
| 1777638027 | 13.33° C | 84% | 1016.7 hPa | 0 mm | - | 0 W/m² | - |
| 1777636867 | 13.33° C | 84% | 1016.3 hPa | 0 mm | - | 0 W/m² | - |
| 1777635062 | 13.33° C | 84% | 1016.3 hPa | 0 mm | - | 0 W/m² | - |
| 1777627530 | 13.89° C | 82% | 1016.3 hPa | 0 mm | - | 0 W/m² | - |
| 1777626935 | 13.89° C | 82% | 1016.2 hPa | 0 mm | - | 0 W/m² | - |
| 1777626329 | 13.89° C | 82% | 1016.1 hPa | 0 mm | - | 0 W/m² | - |
| 1777623340 | 13.89° C | 81% | 1015.7 hPa | 0 mm | - | 0 W/m² | - |
| 1777622730 | 13.89° C | 81% | 1015.8 hPa | 0 mm | - | 0 W/m² | - |
| 1777619739 | 13.89° C | 83% | 1017.2 hPa | 0 mm | - | 0 W/m² | - |
| 1777618844 | 13.89° C | 82% | 1017.1 hPa | 0 mm | - | 0 W/m² | - |
| 1777618528 | 14.44° C | 81% | 1017 hPa | 0 mm | - | 0 W/m² | - |
| 1777618230 | 14.44° C | 80% | 1016.9 hPa | 0 mm | - | 0 W/m² | - |
| 1777617935 | 14.44° C | 79% | 1017.1 hPa | 0 mm | - | 0 W/m² | - |
| 1777614627 | 14.44° C | 78% | 1017.4 hPa | 0 mm | - | 0 W/m² | - |
| 1777613727 | 14.44° C | 79% | 1017.5 hPa | 0 mm | - | 0 W/m² | - |
| 1777610428 | 14.44° C | 81% | 1017.2 hPa | 0 mm | - | 0 W/m² | - |
| 1777609843 | 14.44° C | 81% | 1017.1 hPa | 0 mm | - | 0 W/m² | - |
| 1777603542 | 15.56° C | 79% | 1016.1 hPa | 0 mm | - | 0 W/m² | - |
| 1777603227 | 15.56° C | 79% | 1015.8 hPa | 0 mm | - | 0 W/m² | - |
| 1777601430 | 16.11° C | 73% | 1015.7 hPa | 0 mm | - | 0 W/m² | - |
| 1777601128 | 16.11° C | 73% | 1015.9 hPa | 0 mm | - | 0 W/m² | - |
| 1777600863 | 16.11° C | 73% | 1016 hPa | 0 mm | - | 0 W/m² | - |
| 1777600528 | 16.11° C | 72% | 1015.8 hPa | 0 mm | - | 0 W/m² | - |
* Rain latest hour (hover to see other rain measurements)
** Current wind speed in m/s (hover to see current wind gust speed)